MST,Max TemperatureF,Mean TemperatureF,Min TemperatureF,Max Dew PointF,MeanDew PointF,Min DewpointF,Max Humidity, Mean Humidity, Min Humidity, Max Sea Level PressureIn, Mean Sea Level PressureIn, Min Sea Level PressureIn, Max VisibilityMiles, Mean VisibilityMiles, Min VisibilityMiles, Max Wind SpeedMPH, Mean Wind SpeedMPH, Max Gust SpeedMPH,PrecipitationIn, CloudCover, Events, WindDirDegrees
2014-1-1,64,52,39,21,16,13,43,28,14,30.16,30.11,30.04,10,10,10,8,2,,0.00,0,,180
2014-1-2,64,52,39,21,19,16,45,29,15,30.23,30.14,30.07,10,10,10,13,6,21,0.00,1,,123
2014-1-3,69,53,37,21,19,16,52,30,13,30.11,30.01,29.92,10,10,10,12,4,21,0.00,1,,195
2014-1-4,64,54,43,20,17,16,37,26,16,30.00,29.95,29.91,10,10,10,20,7,28,0.00,0,,281
2014-1-5,59,50,41,24,19,10,49,32,14,30.15,30.07,29.99,10,10,10,14,8,,0.00,1,,294
2014-1-6,57,45,33,9,2,-6,28,19,10,30.30,30.21,30.15,10,10,10,10,3,,0.00,1,,73
2014-1-7,64,47,30,14,6,0,37,20,10,30.21,30.12,30.03,10,10,10,15,3,,0.00,4,,162
2014-1-8,64,52,41,18,14,10,34,24,12,30.08,30.03,29.96,10,10,10,17,7,26,0.00,4,,261
2014-1-9,60,48,35,18,15,10,48,30,14,30.09,30.03,29.94,10,10,10,13,5,,0.00,5,,230
2014-1-10,62,48,35,23,17,10,56,32,14,30.13,30.05,29.90,10,10,10,16,7,,0.00,0,,278
2014-1-11,68,52,36,20,18,16,48,30,14,30.21,30.13,30.04,10,10,10,12,3,,0.00,0,,199
2014-1-12,66,55,44,25,20,15,43,28,14,30.16,30.03,29.96,10,10,10,23,9,30,0.00,0,,272
2014-1-13,64,50,37,25,12,-6,56,28,7,30.31,30.24,30.17,10,10,10,14,6,,0.00,0,,244
2014-1-14,62,50,37,10,8,3,33,21,9,30.32,30.27,30.22,10,10,10,8,3,,0.00,0,,66
2014-1-15,64,52,39,9,5,1,26,17,8,30.33,30.24,30.15,10,10,10,13,8,,0.00,0,,145
2014-1-16,66,52,39,12,8,1,33,19,8,30.19,30.11,30.01,10,10,10,9,6,,0.00,0,,203
2014-1-17,66,52,39,12,8,1,33,19,8,30.21,30.13,30.08,10,10,10,8,2,,0.00,0,,209
2014-1-18,68,52,37,8,5,-2,30,16,6,30.16,30.11,30.06,10,10,10,9,5,,0.00,0,,158
2014-1-19,66,54,41,11,8,6,27,18,9,30.24,30.16,30.10,10,10,9,8,3,,0.00,0,,163
2014-1-20,71,58,46,13,9,3,25,17,7,30.22,30.15,30.08,10,10,10,9,4,17,0.00,1,,210
2014-1-21,66,55,44,10,8,3,25,17,8,30.29,30.18,30.09,10,10,10,12,4,,0.00,5,,145
2014-1-22,71,60,48,27,15,9,30,19,10,30.08,29.95,29.83,10,10,10,18,5,22,0.00,5,,247
2014-1-23,66,54,42,19,14,7,37,23,10,30.20,30.00,29.87,10,10,10,10,3,,0.00,7,,199
2014-1-24,55,46,37,23,17,14,39,30,21,30.37,30.30,30.22,10,10,10,12,5,,0.00,8,Rain,86
2014-1-25,68,57,46,43,37,19,66,53,29,30.30,30.18,30.05,10,10,10,17,5,22,0.01,5,Rain,195
2014-1-26,64,55,46,38,30,25,68,43,29,30.10,30.02,29.96,10,10,10,14,9,17,0.00,1,,280
2014-1-27,64,55,46,37,28,25,62,39,26,30.05,29.97,29.88,10,10,10,17,8,25,0.00,4,Rain,286
2014-1-28,64,52,41,23,17,9,49,28,11,30.09,30.03,29.96,10,10,10,13,7,,0.00,1,,252
2014-1-29,69,55,41,18,10,0,36,20,6,30.09,30.02,29.94,10,10,10,10,3,,0.00,3,,244
2014-1-30,71,58,44,25,15,7,26,19,11,29.96,29.89,29.79,10,10,10,33,7,40,0.00,5,,223
2014-1-31,66,58,50,35,26,21,57,30,21,29.86,29.79,29.74,10,10,10,29,19,44,0.00,6,,223